Time,TemperatureF,DewpointF,PressureIn,WindDirection,WindDirectionDegrees,WindSpeedMPH,WindSpeedGustMPH,Humidity,HourlyPrecipIn,Conditions,Clouds,dailyrainin,SoftwareType,DateUTC
2013-10-21 00:01:00,49.6,42.7,29.85,WSW,248,0.0,0.0,77,0.00,,,0.00,WeatherDisplay:10.37,2013-10-21 04:01:00,
2013-10-21 00:03:00,49.6,42.7,29.85,WSW,248,0.0,0.0,77,0.00,,,0.00,WeatherDisplay:10.37,2013-10-21 04:03:00,
2013-10-21 00:08:00,49.5,42.9,29.85,WSW,248,0.0,0.0,78,0.00,,,0.00,WeatherDisplay:10.37,2013-10-21 04:08:00,
2013-10-21 00:13:00,49.6,43.1,29.85,WSW,248,0.0,0.0,78,0.00,,,0.00,WeatherDisplay:10.37,2013-10-21 04:13:00,
2013-10-21 00:18:00,49.6,43.1,29.85,WSW,248,0.0,0.0,78,0.00,,,0.00,WeatherDisplay:10.37,2013-10-21 04:18:00,
2013-10-21 00:23:00,49.5,42.9,29.85,WSW,248,0.0,0.0,78,0.00,,,0.00,WeatherDisplay:10.37,2013-10-21 04:23:00,
2013-10-21 00:28:00,49.3,42.7,29.85,WSW,248,0.0,0.0,78,0.00,,,0.00,WeatherDisplay:10.37,2013-10-21 04:28:00,
2013-10-21 00:33:00,49.1,42.5,29.85,WSW,248,0.0,0.0,78,0.00,,,0.00,WeatherDisplay:10.37,2013-10-21 04:33:00,
2013-10-21 00:38:00,48.9,42.4,29.85,WSW,248,0.0,0.0,78,0.00,,,0.00,WeatherDisplay:10.37,2013-10-21 04:38:00,
2013-10-21 00:43:00,48.6,42.0,29.85,WSW,248,0.0,0.0,78,0.00,,,0.00,WeatherDisplay:10.37,2013-10-21 04:43:00,
2013-10-21 00:48:00,48.4,41.8,29.85,WSW,248,0.0,0.0,78,0.00,,,0.00,WeatherDisplay:10.37,2013-10-21 04:48:00,
2013-10-21 00:53:00,48.0,41.5,29.85,WSW,248,0.0,0.0,78,0.00,,,0.00,WeatherDisplay:10.37,2013-10-21 04:53:00,
2013-10-21 00:58:00,47.8,41.3,29.85,WSW,248,0.0,0.0,78,0.00,,,0.00,WeatherDisplay:10.37,2013-10-21 04:58:00,
2013-10-21 01:03:00,47.8,41.6,29.85,WSW,248,0.0,0.0,79,0.00,,,0.00,WeatherDisplay:10.37,2013-10-21 05:03:00,
2013-10-21 01:08:00,47.8,41.6,29.85,WSW,248,0.0,0.0,79,0.00,,,0.00,WeatherDisplay:10.37,2013-10-21 05:08:00,
2013-10-21 01:13:00,47.7,41.5,29.85,WSW,248,0.0,0.0,79,0.00,,,0.00,WeatherDisplay:10.37,2013-10-21 05:13:00,
2013-10-21 01:18:00,47.5,41.3,29.84,WSW,248,0.0,0.0,79,0.00,,,0.00,WeatherDisplay:10.37,2013-10-21 05:18:00,
2013-10-21 01:23:00,47.3,41.1,29.85,WSW,248,0.0,0.0,79,0.00,,,0.00,WeatherDisplay:10.37,2013-10-21 05:23:00,
2013-10-21 01:28:00,47.3,41.4,29.84,WSW,248,0.0,0.0,80,0.00,,,0.00,WeatherDisplay:10.37,2013-10-21 05:28:00,
2013-10-21 01:33:00,47.3,41.4,29.85,WSW,248,0.0,0.0,80,0.00,,,0.00,WeatherDisplay:10.37,2013-10-21 05:33:00,
2013-10-21 01:38:00,47.1,41.3,29.84,WSW,248,0.0,0.0,80,0.00,,,0.00,WeatherDisplay:10.37,2013-10-21 05:38:00,
2013-10-21 01:43:00,47.3,41.4,29.84,WSW,248,0.0,0.0,80,0.00,,,0.00,WeatherDisplay:10.37,2013-10-21 05:43:00,
2013-10-21 01:48:00,47.3,41.4,29.85,WSW,248,0.0,0.0,80,0.00,,,0.00,WeatherDisplay:10.37,2013-10-21 05:48:00,
2013-10-21 01:53:00,47.5,41.6,29.84,WSW,248,0.0,0.0,80,0.00,,,0.00,WeatherDisplay:10.37,2013-10-21 05:53:00,
2013-10-21 01:58:00,47.5,41.9,29.85,WSW,248,0.0,0.0,81,0.00,,,0.00,WeatherDisplay:10.37,2013-10-21 05:58:00,
2013-10-21 02:03:00,47.5,41.6,29.85,WSW,248,0.0,0.0,80,0.00,,,0.00,WeatherDisplay:10.37,2013-10-21 06:03:00,
2013-10-21 02:08:00,47.5,41.6,29.85,WSW,248,0.0,0.0,80,0.00,,,0.00,WeatherDisplay:10.37,2013-10-21 06:08:00,
2013-10-21 02:13:00,47.3,41.4,29.85,WSW,248,0.0,0.0,80,0.00,,,0.00,WeatherDisplay:10.37,2013-10-21 06:13:00,
2013-10-21 02:18:00,47.3,41.4,29.85,WSW,248,0.0,0.0,80,0.00,,,0.00,WeatherDisplay:10.37,2013-10-21 06:18:00,
2013-10-21 02:23:00,47.1,41.3,29.85,WSW,248,0.0,0.0,80,0.00,,,0.00,WeatherDisplay:10.37,2013-10-21 06:23:00,
2013-10-21 02:28:00,47.1,41.3,29.85,WSW,248,0.0,0.0,80,0.00,,,0.00,WeatherDisplay:10.37,2013-10-21 06:28:00,
2013-10-21 02:33:00,46.9,41.1,29.85,WSW,248,0.0,0.0,80,0.00,,,0.00,WeatherDisplay:10.37,2013-10-21 06:33:00,
2013-10-21 02:38:00,46.9,41.1,29.85,WSW,248,0.0,0.0,80,0.00,,,0.00,WeatherDisplay:10.37,2013-10-21 06:38:00,
2013-10-21 02:43:00,46.9,41.1,29.85,WSW,248,0.0,0.0,80,0.00,,,0.00,WeatherDisplay:10.37,2013-10-21 06:43:00,
2013-10-21 02:48:00,46.9,41.4,29.85,WSW,248,0.0,0.0,81,0.00,,,0.00,WeatherDisplay:10.37,2013-10-21 06:48:00,
2013-10-21 02:53:00,46.9,41.4,29.85,WSW,248,0.0,0.0,81,0.00,,,0.00,WeatherDisplay:10.37,2013-10-21 06:53:00,
2013-10-21 02:58:00,46.9,41.4,29.85,WSW,248,0.0,0.0,81,0.00,,,0.00,WeatherDisplay:10.37,2013-10-21 06:58:00,
2013-10-21 03:03:00,46.9,41.4,29.85,WSW,248,0.0,0.0,81,0.00,,,0.00,WeatherDisplay:10.37,2013-10-21 07:03:00,
2013-10-21 03:08:00,46.9,41.4,29.85,WSW,248,0.0,0.0,81,0.00,,,0.00,WeatherDisplay:10.37,2013-10-21 07:08:00,
2013-10-21 03:13:00,46.8,41.2,29.85,WSW,248,0.0,0.0,81,0.00,,,0.00,WeatherDisplay:10.37,2013-10-21 07:13:00,
2013-10-21 03:18:00,46.8,41.2,29.85,WSW,248,0.0,0.0,81,0.00,,,0.00,WeatherDisplay:10.37,2013-10-21 07:18:00,
2013-10-21 03:23:00,46.6,41.1,29.85,WSW,248,0.0,0.0,81,0.00,,,0.00,WeatherDisplay:10.37,2013-10-21 07:23:00,
2013-10-21 03:28:00,46.6,41.1,29.85,WSW,248,0.0,0.0,81,0.00,,,0.00,WeatherDisplay:10.37,2013-10-21 07:28:00,
2013-10-21 03:33:00,46.6,41.1,29.85,WSW,248,0.0,0.0,81,0.00,,,0.00,WeatherDisplay:10.37,2013-10-21 07:33:00,
2013-10-21 03:38:00,46.6,41.4,29.85,WSW,248,0.0,0.0,82,0.00,,,0.00,WeatherDisplay:10.37,2013-10-21 07:38:00,
2013-10-21 03:43:00,46.6,41.4,29.85,WSW,248,0.0,0.0,82,0.00,,,0.00,WeatherDisplay:10.37,2013-10-21 07:43:00,
2013-10-21 03:48:00,46.2,41.0,29.85,WSW,248,0.0,0.0,82,0.00,,,0.00,WeatherDisplay:10.37,2013-10-21 07:48:00,
2013-10-21 03:53:00,46.2,41.0,29.85,WSW,248,0.0,0.0,82,0.00,,,0.00,WeatherDisplay:10.37,2013-10-21 07:53:00,
2013-10-21 03:58:00,46.0,40.9,29.85,WSW,248,0.0,0.0,82,0.00,,,0.00,WeatherDisplay:10.37,2013-10-21 07:58:00,
2013-10-21 04:03:00,46.0,40.9,29.85,WSW,248,0.0,0.0,82,0.00,,,0.00,WeatherDisplay:10.37,2013-10-21 08:03:00,
2013-10-21 04:08:00,46.0,40.9,29.84,WSW,248,0.0,0.0,82,0.00,,,0.00,WeatherDisplay:10.37,2013-10-21 08:08:00,
2013-10-21 04:13:00,45.9,40.7,29.84,WSW,248,0.0,0.0,82,0.00,,,0.00,WeatherDisplay:10.37,2013-10-21 08:13:00,
2013-10-21 04:18:00,45.7,40.5,29.84,WSW,248,0.0,0.0,82,0.00,,,0.00,WeatherDisplay:10.37,2013-10-21 08:18:00,
2013-10-21 04:23:00,45.7,40.5,29.85,WSW,248,0.0,0.0,82,0.00,,,0.00,WeatherDisplay:10.37,2013-10-21 08:23:00,
2013-10-21 04:28:00,45.7,40.8,29.85,WSW,248,0.0,0.0,83,0.00,,,0.00,WeatherDisplay:10.37,2013-10-21 08:28:00,
2013-10-21 04:33:00,45.7,40.5,29.85,WSW,248,0.0,0.0,82,0.00,,,0.00,WeatherDisplay:10.37,2013-10-21 08:33:00,
2013-10-21 04:38:00,45.5,40.3,29.85,WSW,248,0.0,0.0,82,0.00,,,0.00,WeatherDisplay:10.37,2013-10-21 08:38:00,
2013-10-21 04:43:00,45.5,40.3,29.85,WSW,248,0.0,0.0,82,0.00,,,0.00,WeatherDisplay:10.37,2013-10-21 08:43:00,
2013-10-21 04:48:00,45.3,40.1,29.85,WSW,248,0.0,0.0,82,0.00,,,0.00,WeatherDisplay:10.37,2013-10-21 08:48:00,
2013-10-21 04:53:00,45.3,40.1,29.85,WSW,248,0.0,0.0,82,0.00,,,0.00,WeatherDisplay:10.37,2013-10-21 08:53:00,
2013-10-21 04:58:00,45.1,40.0,29.85,WSW,248,0.0,0.0,82,0.00,,,0.00,WeatherDisplay:10.37,2013-10-21 08:58:00,
2013-10-21 05:03:00,45.1,40.0,29.85,WSW,248,0.0,0.0,82,0.00,,,0.00,WeatherDisplay:10.37,2013-10-21 09:03:00,
2013-10-21 05:08:00,45.0,39.8,29.85,WSW,248,0.0,0.0,82,0.00,,,0.00,WeatherDisplay:10.37,2013-10-21 09:08:00,
2013-10-21 05:13:00,45.0,39.8,29.85,WSW,248,0.0,0.0,82,0.00,,,0.00,WeatherDisplay:10.37,2013-10-21 09:13:00,
2013-10-21 05:18:00,45.0,39.8,29.85,WSW,248,0.0,0.0,82,0.00,,,0.00,WeatherDisplay:10.37,2013-10-21 09:18:00,
2013-10-21 05:23:00,44.8,39.9,29.85,WSW,248,0.0,0.0,83,0.00,,,0.00,WeatherDisplay:10.37,2013-10-21 09:23:00,
2013-10-21 05:28:00,44.8,39.9,29.85,WSW,248,0.0,0.0,83,0.00,,,0.00,WeatherDisplay:10.37,2013-10-21 09:28:00,
2013-10-21 05:33:00,44.8,39.9,29.85,WSW,248,0.0,0.0,83,0.00,,,0.00,WeatherDisplay:10.37,2013-10-21 09:33:00,
2013-10-21 05:38:00,44.8,39.9,29.86,WSW,248,0.0,0.0,83,0.00,,,0.00,WeatherDisplay:10.37,2013-10-21 09:38:00,
2013-10-21 05:43:00,45.0,40.1,29.86,WSW,248,0.0,0.0,83,0.00,,,0.00,WeatherDisplay:10.37,2013-10-21 09:43:00,
2013-10-21 05:48:00,45.0,40.1,29.86,WSW,248,0.0,0.0,83,0.00,,,0.00,WeatherDisplay:10.37,2013-10-21 09:48:00,
2013-10-21 05:53:00,45.0,40.1,29.86,WSW,248,0.0,0.0,83,0.00,,,0.00,WeatherDisplay:10.37,2013-10-21 09:53:00,
2013-10-21 05:58:00,44.8,39.9,29.86,WSW,248,0.0,0.0,83,0.00,,,0.00,WeatherDisplay:10.37,2013-10-21 09:58:00,
2013-10-21 06:03:00,44.6,39.8,29.86,WSW,248,0.0,0.0,83,0.00,,,0.00,WeatherDisplay:10.37,2013-10-21 10:03:00,
2013-10-21 06:08:00,44.4,39.6,29.87,WSW,248,0.0,0.0,83,0.00,,,0.00,WeatherDisplay:10.37,2013-10-21 10:08:00,
2013-10-21 06:13:00,44.4,39.6,29.86,WSW,248,0.0,0.0,83,0.00,,,0.00,WeatherDisplay:10.37,2013-10-21 10:13:00,
2013-10-21 06:18:00,44.2,39.4,29.86,WSW,248,0.0,0.0,83,0.00,,,0.00,WeatherDisplay:10.37,2013-10-21 10:18:00,
2013-10-21 06:23:00,44.1,39.2,29.86,WSW,248,0.0,0.0,83,0.00,,,0.00,WeatherDisplay:10.37,2013-10-21 10:23:00,
2013-10-21 06:28:00,43.9,38.7,29.86,WSW,248,0.0,0.0,82,0.00,,,0.00,WeatherDisplay:10.37,2013-10-21 10:28:00,
2013-10-21 06:33:00,43.7,38.6,29.86,WSW,248,0.0,0.0,82,0.00,,,0.00,WeatherDisplay:10.37,2013-10-21 10:33:00,
2013-10-21 06:38:00,43.5,38.7,29.86,WSW,248,0.0,0.0,83,0.00,,,0.00,WeatherDisplay:10.37,2013-10-21 10:38:00,
2013-10-21 06:43:00,43.5,38.7,29.86,WSW,248,0.0,0.0,83,0.00,,,0.00,WeatherDisplay:10.37,2013-10-21 10:43:00,
2013-10-21 06:48:00,43.5,38.7,29.86,WSW,248,0.0,0.0,83,0.00,,,0.00,WeatherDisplay:10.37,2013-10-21 10:48:00,
2013-10-21 06:53:00,43.5,38.7,29.86,WSW,248,0.0,0.0,83,0.00,,,0.00,WeatherDisplay:10.37,2013-10-21 10:53:00,
2013-10-21 06:58:00,43.5,39.0,29.86,WSW,248,0.0,0.0,84,0.00,,,0.00,WeatherDisplay:10.37,2013-10-21 10:58:00,
2013-10-21 07:03:00,43.5,39.0,29.86,WSW,248,0.0,0.0,84,0.00,,,0.00,WeatherDisplay:10.37,2013-10-21 11:03:00,
2013-10-21 07:08:00,43.5,39.0,29.86,WSW,248,0.0,0.0,84,0.00,,,0.00,WeatherDisplay:10.37,2013-10-21 11:08:00,
2013-10-21 07:13:00,43.5,39.0,29.86,WSW,248,0.0,0.0,84,0.00,,,0.00,WeatherDisplay:10.37,2013-10-21 11:13:00,
2013-10-21 07:18:00,43.5,39.0,29.86,WSW,248,0.0,0.0,84,0.00,,,0.00,WeatherDisplay:10.37,2013-10-21 11:18:00,
2013-10-21 07:23:00,43.5,39.0,29.87,WSW,248,0.0,0.0,84,0.00,,,0.00,WeatherDisplay:10.37,2013-10-21 11:23:00,
2013-10-21 07:28:00,43.5,39.0,29.87,WSW,248,0.0,0.0,84,0.00,,,0.00,WeatherDisplay:10.37,2013-10-21 11:28:00,
2013-10-21 07:33:00,43.3,38.8,29.87,WSW,248,0.0,0.0,84,0.00,,,0.00,WeatherDisplay:10.37,2013-10-21 11:33:00,
2013-10-21 07:38:00,43.3,38.8,29.87,WSW,248,0.0,0.0,84,0.00,,,0.00,WeatherDisplay:10.37,2013-10-21 11:38:00,
2013-10-21 07:43:00,43.3,38.8,29.87,WSW,248,0.0,0.0,84,0.00,,,0.00,WeatherDisplay:10.37,2013-10-21 11:43:00,
2013-10-21 07:48:00,43.3,38.8,29.87,WSW,248,0.0,0.0,84,0.00,,,0.00,WeatherDisplay:10.37,2013-10-21 11:48:00,
2013-10-21 07:53:00,43.3,38.8,29.87,WSW,248,0.0,0.0,84,0.00,,,0.00,WeatherDisplay:10.37,2013-10-21 11:53:00,
2013-10-21 07:58:00,43.3,39.1,29.87,WSW,248,0.0,0.0,85,0.00,,,0.00,WeatherDisplay:10.37,2013-10-21 11:58:00,
2013-10-21 08:03:00,43.5,39.3,29.87,WSW,248,0.0,0.0,85,0.00,,,0.00,WeatherDisplay:10.37,2013-10-21 12:03:00,
2013-10-21 08:08:00,43.9,39.7,29.88,WSW,248,0.0,0.0,85,0.00,,,0.00,WeatherDisplay:10.37,2013-10-21 12:08:00,
2013-10-21 08:13:00,43.9,39.7,29.88,WSW,248,0.0,0.0,85,0.00,,,0.00,WeatherDisplay:10.37,2013-10-21 12:13:00,
2013-10-21 08:18:00,44.2,40.0,29.88,WSW,248,0.0,0.0,85,0.00,,,0.00,WeatherDisplay:10.37,2013-10-21 12:18:00,
2013-10-21 08:23:00,44.4,40.2,29.88,WSW,248,0.0,0.0,85,0.00,,,0.00,WeatherDisplay:10.37,2013-10-21 12:23:00,
2013-10-21 08:28:00,44.4,40.2,29.89,WSW,248,0.0,0.0,85,0.00,,,0.00,WeatherDisplay:10.37,2013-10-21 12:28:00,
2013-10-21 08:33:00,44.4,40.2,29.89,WSW,248,0.0,0.0,85,0.00,,,0.00,WeatherDisplay:10.37,2013-10-21 12:33:00,
2013-10-21 08:38:00,44.4,40.2,29.89,WSW,248,0.0,0.0,85,0.00,,,0.00,WeatherDisplay:10.37,2013-10-21 12:38:00,
2013-10-21 08:43:00,44.6,40.4,29.89,WSW,248,0.0,0.0,85,0.00,,,0.00,WeatherDisplay:10.37,2013-10-21 12:43:00,
2013-10-21 08:48:00,44.8,40.5,29.89,WSW,248,0.0,0.0,85,0.00,,,0.00,WeatherDisplay:10.37,2013-10-21 12:48:00,
2013-10-21 08:53:00,45.0,40.7,29.89,WSW,248,0.0,0.0,85,0.00,,,0.00,WeatherDisplay:10.37,2013-10-21 12:53:00,
2013-10-21 08:58:00,45.1,40.9,29.90,WSW,248,0.0,0.0,85,0.00,,,0.00,WeatherDisplay:10.37,2013-10-21 12:58:00,
2013-10-21 09:03:00,45.1,40.9,29.89,WSW,248,0.0,0.0,85,0.00,,,0.00,WeatherDisplay:10.37,2013-10-21 13:03:00,
2013-10-21 09:08:00,45.3,41.1,29.89,WSW,248,0.0,0.0,85,0.00,,,0.00,WeatherDisplay:10.37,2013-10-21 13:08:00,
2013-10-21 09:13:00,45.3,41.1,29.90,WSW,248,0.0,0.0,85,0.00,,,0.00,WeatherDisplay:10.37,2013-10-21 13:13:00,
2013-10-21 09:18:00,45.5,41.3,29.90,WSW,248,0.0,0.0,85,0.00,,,0.00,WeatherDisplay:10.37,2013-10-21 13:18:00,
2013-10-21 09:23:00,45.5,41.3,29.90,SW,225,0.0,0.0,85,0.00,,,0.00,WeatherDisplay:10.37,2013-10-21 13:23:00,
2013-10-21 09:28:00,45.7,41.4,29.89,SSE,158,0.0,0.0,85,0.00,,,0.00,WeatherDisplay:10.37,2013-10-21 13:28:00,
2013-10-21 09:33:00,45.7,41.4,29.89,SSE,158,0.0,0.0,85,0.00,,,0.00,WeatherDisplay:10.37,2013-10-21 13:33:00,
2013-10-21 09:38:00,46.2,42.0,29.89,SSE,158,0.0,0.0,85,0.00,,,0.00,WeatherDisplay:10.37,2013-10-21 13:38:00,
2013-10-21 09:43:00,46.2,42.0,29.90,SSE,158,0.0,0.0,85,0.00,,,0.00,WeatherDisplay:10.37,2013-10-21 13:43:00,
2013-10-21 09:48:00,46.6,42.3,29.89,SSE,158,0.0,0.0,85,0.00,,,0.00,WeatherDisplay:10.37,2013-10-21 13:48:00,
2013-10-21 09:53:00,46.9,42.7,29.89,SSE,158,0.0,0.0,85,0.00,,,0.00,WeatherDisplay:10.37,2013-10-21 13:53:00,
2013-10-21 09:58:00,46.9,42.7,29.89,SSE,158,0.0,0.0,85,0.00,,,0.00,WeatherDisplay:10.37,2013-10-21 13:58:00,
2013-10-21 10:03:00,47.1,42.8,29.90,SSE,158,0.0,0.0,85,0.00,,,0.00,WeatherDisplay:10.37,2013-10-21 14:03:00,
2013-10-21 10:08:00,47.5,43.2,29.89,SSE,158,0.0,0.0,85,0.00,,,0.00,WeatherDisplay:10.37,2013-10-21 14:08:00,
2013-10-21 10:13:00,48.0,43.7,29.89,SSE,158,0.0,0.0,85,0.00,,,0.00,WeatherDisplay:10.37,2013-10-21 14:13:00,
2013-10-21 10:18:00,48.4,44.1,29.89,SSE,158,0.0,0.0,85,0.00,,,0.00,WeatherDisplay:10.37,2013-10-21 14:18:00,
2013-10-21 10:23:00,48.9,44.6,29.89,SSE,158,0.0,0.0,85,0.00,,,0.00,WeatherDisplay:10.37,2013-10-21 14:23:00,
2013-10-21 10:28:00,49.3,45.0,29.89,SSE,158,0.0,0.0,85,0.00,,,0.00,WeatherDisplay:10.37,2013-10-21 14:28:00,
2013-10-21 10:33:00,49.8,45.2,29.89,South,180,0.0,0.0,84,0.00,,,0.00,WeatherDisplay:10.37,2013-10-21 14:33:00,
2013-10-21 10:38:00,50.2,45.5,29.89,South,180,0.0,0.0,84,0.00,,,0.00,WeatherDisplay:10.37,2013-10-21 14:38:00,
2013-10-21 10:43:00,50.7,46.1,29.89,SSW,202,0.0,0.0,84,0.00,,,0.00,WeatherDisplay:10.37,2013-10-21 14:43:00,
2013-10-21 10:48:00,51.4,46.4,29.89,SSE,158,0.0,0.0,83,0.00,,,0.00,WeatherDisplay:10.37,2013-10-21 14:48:00,
2013-10-21 10:53:00,52.0,47.0,29.89,South,180,0.0,0.0,83,0.00,,,0.00,WeatherDisplay:10.37,2013-10-21 14:53:00,
2013-10-21 10:58:00,52.5,47.2,29.89,South,180,0.0,0.0,82,0.00,,,0.00,WeatherDisplay:10.37,2013-10-21 14:58:00,
2013-10-21 11:03:00,53.2,47.6,29.89,SSE,158,0.0,0.0,81,0.00,,,0.00,WeatherDisplay:10.37,2013-10-21 15:03:00,
2013-10-21 11:08:00,54.3,48.6,29.89,SW,225,0.0,0.0,81,0.00,,,0.00,WeatherDisplay:10.37,2013-10-21 15:08:00,
2013-10-21 11:13:00,55.6,49.5,29.89,SSE,158,0.0,0.0,80,0.00,,,0.00,WeatherDisplay:10.37,2013-10-21 15:13:00,
2013-10-21 11:18:00,56.5,49.7,29.88,SSE,158,0.0,0.0,78,0.00,,,0.00,WeatherDisplay:10.37,2013-10-21 15:18:00,
2013-10-21 11:23:00,57.4,50.2,29.88,South,180,0.0,0.0,77,0.00,,,0.00,WeatherDisplay:10.37,2013-10-21 15:23:00,
2013-10-21 11:28:00,58.3,51.1,29.88,SSE,158,0.3,0.0,77,0.00,,,0.00,WeatherDisplay:10.37,2013-10-21 15:28:00,
2013-10-21 11:33:00,59.5,51.6,29.88,South,180,0.0,0.0,75,0.00,,,0.00,WeatherDisplay:10.37,2013-10-21 15:33:00,
2013-10-21 11:38:00,60.4,52.1,29.88,SSW,202,0.0,0.0,74,0.00,,,0.00,WeatherDisplay:10.37,2013-10-21 15:38:00,
2013-10-21 11:43:00,61.3,52.6,29.89,SW,225,1.1,5.8,73,0.00,,,0.00,WeatherDisplay:10.37,2013-10-21 15:43:00,
2013-10-21 11:48:00,61.9,52.4,29.88,SW,225,0.0,0.0,71,0.00,,,0.00,WeatherDisplay:10.37,2013-10-21 15:48:00,
2013-10-21 11:53:00,62.4,52.1,29.88,South,180,5.2,5.2,69,0.00,,,0.00,WeatherDisplay:10.37,2013-10-21 15:53:00,
2013-10-21 11:58:00,63.1,52.8,29.88,South,180,0.1,1.6,69,0.00,,,0.00,WeatherDisplay:10.37,2013-10-21 15:58:00,
2013-10-21 12:03:00,63.5,52.3,29.87,SSE,158,0.0,1.1,67,0.00,,,0.00,WeatherDisplay:10.37,2013-10-21 16:03:00,
2013-10-21 12:09:00,63.7,51.7,29.87,SSW,202,1.8,4.7,65,0.00,,,0.00,WeatherDisplay:10.37,2013-10-21 16:09:00,
2013-10-21 12:14:00,64.2,52.2,29.87,SSW,202,1.7,4.6,65,0.00,,,0.00,WeatherDisplay:10.37,2013-10-21 16:14:00,
2013-10-21 12:19:00,64.9,52.9,29.87,SSW,202,0.9,2.3,65,0.00,,,0.00,WeatherDisplay:10.37,2013-10-21 16:19:00,
2013-10-21 12:24:00,65.5,53.0,29.86,SSE,158,0.1,1.1,64,0.00,,,0.00,WeatherDisplay:10.37,2013-10-21 16:24:00,
2013-10-21 12:29:00,66.0,53.1,29.86,South,180,0.6,5.8,63,0.00,,,0.00,WeatherDisplay:10.37,2013-10-21 16:29:00,
2013-10-21 12:34:00,66.2,52.3,29.86,SW,225,0.0,0.0,61,0.00,,,0.00,WeatherDisplay:10.37,2013-10-21 16:34:00,
2013-10-21 12:39:00,66.6,53.1,29.86,SSW,202,0.4,3.6,62,0.00,,,0.00,WeatherDisplay:10.37,2013-10-21 16:39:00,
2013-10-21 12:44:00,67.1,53.2,29.86,South,180,0.0,0.0,61,0.00,,,0.00,WeatherDisplay:10.37,2013-10-21 16:44:00,
2013-10-21 12:49:00,68.0,53.6,29.86,SW,225,0.0,0.0,60,0.00,,,0.00,WeatherDisplay:10.37,2013-10-21 16:49:00,
2013-10-21 12:54:00,68.9,54.4,29.86,SSW,202,2.6,9.2,60,0.00,,,0.00,WeatherDisplay:10.37,2013-10-21 16:54:00,
2013-10-21 12:59:00,69.4,54.0,29.86,South,180,0.8,3.5,58,0.00,,,0.00,WeatherDisplay:10.37,2013-10-21 16:59:00,
2013-10-21 13:04:00,69.6,53.7,29.86,SW,225,0.0,0.0,57,0.00,,,0.00,WeatherDisplay:10.37,2013-10-21 17:04:00,
2013-10-21 13:09:00,70.0,54.0,29.85,SSE,158,0.0,0.0,57,0.00,,,0.00,WeatherDisplay:10.37,2013-10-21 17:09:00,
2013-10-21 13:14:00,70.2,53.7,29.85,SW,225,0.2,1.1,56,0.00,,,0.00,WeatherDisplay:10.37,2013-10-21 17:14:00,
2013-10-21 13:19:00,70.3,53.9,29.84,WSW,248,0.0,0.0,56,0.00,,,0.00,WeatherDisplay:10.37,2013-10-21 17:19:00,
2013-10-21 13:24:00,70.3,53.4,29.84,SSE,158,1.8,5.8,55,0.00,,,0.00,WeatherDisplay:10.37,2013-10-21 17:24:00,
2013-10-21 13:29:00,70.5,53.6,29.84,SSE,158,0.5,3.5,55,0.00,,,0.00,WeatherDisplay:10.37,2013-10-21 17:29:00,
2013-10-21 13:34:00,70.9,53.9,29.84,SSW,202,0.4,3.5,55,0.00,,,0.00,WeatherDisplay:10.37,2013-10-21 17:34:00,
2013-10-21 13:39:00,71.2,54.2,29.84,SW,225,0.0,0.0,55,0.00,,,0.00,WeatherDisplay:10.37,2013-10-21 17:39:00,
2013-10-21 13:44:00,71.4,53.9,29.83,South,180,0.0,0.0,54,0.00,,,0.00,WeatherDisplay:10.37,2013-10-21 17:44:00,
2013-10-21 13:49:00,71.6,54.1,29.83,SE,135,0.1,0.0,54,0.00,,,0.00,WeatherDisplay:10.37,2013-10-21 17:49:00,
2013-10-21 13:54:00,72.0,54.4,29.83,SW,225,0.1,3.5,54,0.00,,,0.00,WeatherDisplay:10.37,2013-10-21 17:54:00,
2013-10-21 13:59:00,72.1,54.1,29.82,SSW,202,0.0,0.0,53,0.00,,,0.00,WeatherDisplay:10.37,2013-10-21 17:59:00,
2013-10-21 14:04:00,72.7,54.6,29.82,South,180,0.0,0.0,53,0.00,,,0.00,WeatherDisplay:10.37,2013-10-21 18:04:00,
2013-10-21 14:09:00,73.0,54.9,29.82,SW,225,0.1,1.1,53,0.00,,,0.00,WeatherDisplay:10.37,2013-10-21 18:09:00,
2013-10-21 14:14:00,73.2,54.0,29.82,SSW,202,1.5,3.5,51,0.00,,,0.00,WeatherDisplay:10.37,2013-10-21 18:14:00,
2013-10-21 14:19:00,73.2,54.0,29.81,SSW,202,0.0,0.0,51,0.00,,,0.00,WeatherDisplay:10.37,2013-10-21 18:19:00,
2013-10-21 14:24:00,73.2,53.5,29.82,SSE,158,1.6,4.6,50,0.00,,,0.00,WeatherDisplay:10.37,2013-10-21 18:24:00,
2013-10-21 14:29:00,73.2,54.0,29.81,SW,225,0.0,0.0,51,0.00,,,0.00,WeatherDisplay:10.37,2013-10-21 18:29:00,
2013-10-21 14:34:00,73.2,53.5,29.81,South,180,0.5,3.5,50,0.00,,,0.00,WeatherDisplay:10.37,2013-10-21 18:34:00,
2013-10-21 14:39:00,73.2,53.5,29.81,SE,135,0.5,2.3,50,0.00,,,0.00,WeatherDisplay:10.37,2013-10-21 18:39:00,
2013-10-21 14:44:00,72.7,53.0,29.81,SW,225,0.0,0.0,50,0.00,,,0.00,WeatherDisplay:10.37,2013-10-21 18:44:00,
2013-10-21 14:49:00,72.5,52.8,29.81,SSE,158,0.0,1.1,50,0.00,,,0.00,WeatherDisplay:10.37,2013-10-21 18:49:00,
2013-10-21 14:54:00,72.3,53.2,29.81,SSW,202,0.0,0.0,51,0.00,,,0.00,WeatherDisplay:10.37,2013-10-21 18:54:00,
2013-10-21 14:59:00,72.3,53.2,29.81,SW,225,0.4,2.3,51,0.00,,,0.00,WeatherDisplay:10.37,2013-10-21 18:59:00,
2013-10-21 15:04:00,72.5,52.8,29.80,South,180,1.1,3.5,50,0.00,,,0.00,WeatherDisplay:10.37,2013-10-21 19:04:00,
2013-10-21 15:09:00,72.3,52.6,29.80,South,180,1.8,3.5,50,0.00,,,0.00,WeatherDisplay:10.37,2013-10-21 19:09:00,
2013-10-21 15:14:00,72.1,53.0,29.81,SSW,202,0.8,3.5,51,0.00,,,0.00,WeatherDisplay:10.37,2013-10-21 19:14:00,
2013-10-21 15:19:00,72.0,52.8,29.81,South,180,2.7,5.8,51,0.00,,,0.00,WeatherDisplay:10.37,2013-10-21 19:19:00,
2013-10-21 15:24:00,71.4,52.3,29.81,SW,225,1.5,3.5,51,0.00,,,0.00,WeatherDisplay:10.37,2013-10-21 19:24:00,
2013-10-21 15:29:00,70.7,52.2,29.80,WSW,248,0.1,2.3,52,0.00,,,0.00,WeatherDisplay:10.37,2013-10-21 19:29:00,
2013-10-21 15:34:00,70.0,52.1,29.80,SW,225,0.1,0.0,53,0.00,,,0.00,WeatherDisplay:10.37,2013-10-21 19:34:00,
2013-10-21 15:39:00,69.8,52.4,29.80,SSE,158,0.0,0.0,54,0.00,,,0.00,WeatherDisplay:10.37,2013-10-21 19:39:00,
2013-10-21 15:44:00,69.6,52.2,29.80,South,180,0.0,1.1,54,0.00,,,0.00,WeatherDisplay:10.37,2013-10-21 19:44:00,
2013-10-21 15:49:00,69.6,52.7,29.80,SSW,202,2.7,6.9,55,0.00,,,0.00,WeatherDisplay:10.37,2013-10-21 19:49:00,
2013-10-21 15:54:00,69.4,53.1,29.80,WSW,248,0.0,0.0,56,0.00,,,0.00,WeatherDisplay:10.37,2013-10-21 19:54:00,
2013-10-21 15:59:00,69.3,52.4,29.80,SW,225,0.4,2.3,55,0.00,,,0.00,WeatherDisplay:10.37,2013-10-21 19:59:00,
2013-10-21 16:04:00,68.7,51.9,29.80,SSW,202,0.0,0.0,55,0.00,,,0.00,WeatherDisplay:10.37,2013-10-21 20:04:00,
2013-10-21 16:09:00,68.2,51.9,29.79,South,180,0.0,0.0,56,0.00,,,0.00,WeatherDisplay:10.37,2013-10-21 20:09:00,
2013-10-21 16:14:00,68.2,52.4,29.79,SSW,202,0.0,0.0,57,0.00,,,0.00,WeatherDisplay:10.37,2013-10-21 20:14:00,
2013-10-21 16:19:00,68.2,52.4,29.79,SW,225,1.3,4.6,57,0.00,,,0.00,WeatherDisplay:10.37,2013-10-21 20:19:00,
2013-10-21 16:24:00,67.3,51.5,29.79,SSW,202,0.1,1.1,57,0.00,,,0.00,WeatherDisplay:10.37,2013-10-21 20:24:00,
2013-10-21 16:29:00,67.1,51.8,29.79,South,180,0.1,4.6,58,0.00,,,0.00,WeatherDisplay:10.37,2013-10-21 20:29:00,
2013-10-21 16:34:00,66.7,51.5,29.79,SSE,158,0.0,0.0,58,0.00,,,0.00,WeatherDisplay:10.37,2013-10-21 20:34:00,
2013-10-21 16:39:00,66.2,51.4,29.79,SSW,202,0.4,2.3,59,0.00,,,0.00,WeatherDisplay:10.37,2013-10-21 20:39:00,
2013-10-21 16:44:00,66.0,51.7,29.79,SW,225,0.0,1.8,60,0.00,,,0.00,WeatherDisplay:10.37,2013-10-21 20:44:00,
2013-10-21 16:49:00,65.5,51.2,29.79,WSW,248,0.3,1.1,60,0.00,,,0.00,WeatherDisplay:10.37,2013-10-21 20:49:00,
2013-10-21 16:54:00,65.1,51.3,29.79,South,180,2.6,6.9,61,0.00,,,0.00,WeatherDisplay:10.37,2013-10-21 20:54:00,
2013-10-21 16:59:00,64.8,51.0,29.79,SW,225,3.9,6.9,61,0.00,,,0.00,WeatherDisplay:10.37,2013-10-21 20:59:00,
2013-10-21 17:04:00,64.2,50.9,29.79,SSW,202,1.7,3.5,62,0.00,,,0.00,WeatherDisplay:10.37,2013-10-21 21:04:00,
2013-10-21 17:09:00,64.2,51.4,29.79,SW,225,0.0,0.0,63,0.00,,,0.00,WeatherDisplay:10.37,2013-10-21 21:09:00,
2013-10-21 17:14:00,64.0,51.2,29.79,SSE,158,0.1,0.9,63,0.00,,,0.00,WeatherDisplay:10.37,2013-10-21 21:14:00,
2013-10-21 17:19:00,64.0,51.6,29.80,SW,225,2.3,6.9,64,0.00,,,0.00,WeatherDisplay:10.37,2013-10-21 21:19:00,
2013-10-21 17:24:00,63.5,51.1,29.80,SSW,202,0.0,0.0,64,0.00,,,0.00,WeatherDisplay:10.37,2013-10-21 21:24:00,
2013-10-21 17:29:00,63.1,50.8,29.80,SW,225,0.0,0.0,64,0.00,,,0.00,WeatherDisplay:10.37,2013-10-21 21:29:00,
2013-10-21 17:34:00,63.0,51.0,29.80,South,180,0.0,0.0,65,0.00,,,0.00,WeatherDisplay:10.37,2013-10-21 21:34:00,
2013-10-21 17:39:00,62.6,51.1,29.80,SSW,202,0.0,0.4,66,0.00,,,0.00,WeatherDisplay:10.37,2013-10-21 21:39:00,
2013-10-21 17:44:00,62.4,50.9,29.80,South,180,0.2,1.1,66,0.00,,,0.00,WeatherDisplay:10.37,2013-10-21 21:44:00,
2013-10-21 17:49:00,62.2,51.1,29.80,South,180,0.0,0.0,67,0.00,,,0.00,WeatherDisplay:10.37,2013-10-21 21:49:00,
2013-10-21 17:54:00,61.9,50.8,29.80,SSE,158,0.0,0.0,67,0.00,,,0.00,WeatherDisplay:10.37,2013-10-21 21:54:00,
2013-10-21 17:59:00,61.5,50.9,29.80,South,180,0.0,0.0,68,0.00,,,0.00,WeatherDisplay:10.37,2013-10-21 21:59:00,
2013-10-21 18:04:00,61.3,50.7,29.80,SW,225,0.0,0.0,68,0.00,,,0.00,WeatherDisplay:10.37,2013-10-21 22:04:00,
2013-10-21 18:09:00,61.0,50.7,29.80,SSW,202,0.0,0.0,69,0.00,,,0.00,WeatherDisplay:10.37,2013-10-21 22:09:00,
2013-10-21 18:14:00,60.8,50.6,29.80,SSE,158,1.5,3.5,69,0.00,,,0.00,WeatherDisplay:10.37,2013-10-21 22:14:00,
2013-10-21 18:19:00,60.4,50.6,29.80,South,180,0.5,5.8,70,0.00,,,0.00,WeatherDisplay:10.37,2013-10-21 22:19:00,
2013-10-21 18:24:00,60.1,50.3,29.80,SSE,158,1.9,5.8,70,0.00,,,0.00,WeatherDisplay:10.37,2013-10-21 22:24:00,
2013-10-21 18:29:00,59.9,50.5,29.81,South,180,0.0,0.0,71,0.00,,,0.00,WeatherDisplay:10.37,2013-10-21 22:29:00,
2013-10-21 18:34:00,59.5,50.5,29.81,SSW,202,0.0,0.0,72,0.00,,,0.00,WeatherDisplay:10.37,2013-10-21 22:34:00,
2013-10-21 18:39:00,59.4,50.3,29.81,South,180,0.5,4.6,72,0.00,,,0.00,WeatherDisplay:10.37,2013-10-21 22:39:00,
2013-10-21 18:44:00,59.2,50.2,29.81,South,180,0.0,3.5,72,0.00,,,0.00,WeatherDisplay:10.37,2013-10-21 22:44:00,
2013-10-21 18:49:00,58.8,50.2,29.81,South,180,0.0,0.0,73,0.00,,,0.00,WeatherDisplay:10.37,2013-10-21 22:49:00,
2013-10-21 18:54:00,58.8,50.2,29.81,South,180,0.0,0.0,73,0.00,,,0.00,WeatherDisplay:10.37,2013-10-21 22:54:00,
2013-10-21 18:59:00,58.6,50.4,29.81,South,180,0.0,0.0,74,0.00,,,0.00,WeatherDisplay:10.37,2013-10-21 22:59:00,
2013-10-21 19:04:00,58.3,50.0,29.81,SSE,158,0.0,0.0,74,0.00,,,0.00,WeatherDisplay:10.37,2013-10-21 23:04:00,
2013-10-21 19:09:00,58.3,50.0,29.81,South,180,0.0,0.0,74,0.00,,,0.00,WeatherDisplay:10.37,2013-10-21 23:09:00,
2013-10-21 19:14:00,58.1,49.9,29.81,South,180,0.0,5.8,74,0.00,,,0.00,WeatherDisplay:10.37,2013-10-21 23:14:00,
2013-10-21 19:19:00,57.9,50.0,29.80,South,180,0.0,0.0,75,0.00,,,0.00,WeatherDisplay:10.37,2013-10-21 23:19:00,
2013-10-21 19:24:00,57.9,50.0,29.81,South,180,0.0,0.0,75,0.00,,,0.00,WeatherDisplay:10.37,2013-10-21 23:24:00,
2013-10-21 19:29:00,57.7,49.9,29.80,South,180,0.0,0.0,75,0.00,,,0.00,WeatherDisplay:10.37,2013-10-21 23:29:00,
2013-10-21 19:34:00,57.6,49.7,29.80,South,180,0.0,0.0,75,0.00,,,0.00,WeatherDisplay:10.37,2013-10-21 23:34:00,
2013-10-21 19:39:00,57.4,49.5,29.80,South,181,0.0,0.0,75,0.00,,,0.00,WeatherDisplay:10.37,2013-10-21 23:39:00,
2013-10-21 19:44:00,57.4,49.9,29.80,South,180,0.0,0.0,76,0.00,,,0.00,WeatherDisplay:10.37,2013-10-21 23:44:00,
2013-10-21 19:49:00,57.0,49.5,29.80,South,180,0.0,0.0,76,0.00,,,0.00,WeatherDisplay:10.37,2013-10-21 23:49:00,
2013-10-21 19:54:00,57.0,49.9,29.80,South,180,0.0,0.0,77,0.00,,,0.00,WeatherDisplay:10.37,2013-10-21 23:54:00,
2013-10-21 19:59:00,56.8,49.7,29.80,South,180,0.0,0.0,77,0.00,,,0.00,WeatherDisplay:10.37,2013-10-21 23:59:00,
2013-10-21 20:04:00,56.8,50.1,29.80,South,180,0.0,0.0,78,0.00,,,0.00,WeatherDisplay:10.37,2013-10-22 00:04:00,
2013-10-21 20:09:00,56.5,49.7,29.80,South,180,0.0,0.0,78,0.00,,,0.00,WeatherDisplay:10.37,2013-10-22 00:09:00,
2013-10-21 20:14:00,56.5,49.7,29.80,South,180,0.0,0.0,78,0.00,,,0.00,WeatherDisplay:10.37,2013-10-22 00:14:00,
2013-10-21 20:19:00,56.3,49.9,29.80,South,180,0.0,0.0,79,0.00,,,0.00,WeatherDisplay:10.37,2013-10-22 00:19:00,
2013-10-21 20:24:00,56.1,49.7,29.80,South,180,0.0,0.0,79,0.00,,,0.00,WeatherDisplay:10.37,2013-10-22 00:24:00,
2013-10-21 20:29:00,56.1,50.0,29.80,South,180,0.0,0.0,80,0.00,,,0.00,WeatherDisplay:10.37,2013-10-22 00:29:00,
2013-10-21 20:34:00,55.9,49.9,29.80,South,180,0.0,0.0,80,0.00,,,0.00,WeatherDisplay:10.37,2013-10-22 00:34:00,
2013-10-21 20:39:00,55.9,49.9,29.80,South,180,0.0,0.0,80,0.00,,,0.00,WeatherDisplay:10.37,2013-10-22 00:39:00,
2013-10-21 20:44:00,55.9,49.9,29.80,South,180,0.0,0.0,80,0.00,,,0.00,WeatherDisplay:10.37,2013-10-22 00:44:00,
2013-10-21 20:49:00,55.9,50.2,29.80,South,180,0.0,0.0,81,0.00,,,0.00,WeatherDisplay:10.37,2013-10-22 00:49:00,
2013-10-21 20:54:00,55.8,50.0,29.80,South,180,0.0,0.0,81,0.00,,,0.00,WeatherDisplay:10.37,2013-10-22 00:54:00,
2013-10-21 20:59:00,55.6,49.8,29.80,South,180,0.0,5.8,81,0.00,,,0.00,WeatherDisplay:10.37,2013-10-22 00:59:00,
2013-10-21 21:04:00,55.6,49.8,29.80,South,180,0.0,3.5,81,0.00,,,0.00,WeatherDisplay:10.37,2013-10-22 01:04:00,
2013-10-21 21:09:00,55.6,50.2,29.80,South,180,0.0,0.0,82,0.00,,,0.00,WeatherDisplay:10.37,2013-10-22 01:09:00,
2013-10-21 21:14:00,55.4,50.0,29.80,South,180,0.0,0.0,82,0.00,,,0.00,WeatherDisplay:10.37,2013-10-22 01:14:00,
2013-10-21 21:19:00,55.4,50.0,29.80,SSE,158,0.0,0.0,82,0.00,,,0.00,WeatherDisplay:10.37,2013-10-22 01:19:00,
2013-10-21 21:24:00,55.4,50.0,29.80,SSE,158,0.0,0.0,82,0.00,,,0.00,WeatherDisplay:10.37,2013-10-22 01:24:00,
2013-10-21 21:29:00,55.4,50.0,29.79,SSW,202,0.0,0.0,82,0.00,,,0.00,WeatherDisplay:10.37,2013-10-22 01:29:00,
2013-10-21 21:34:00,55.4,50.0,29.79,South,180,0.0,0.0,82,0.00,,,0.00,WeatherDisplay:10.37,2013-10-22 01:34:00,
2013-10-21 21:39:00,55.4,50.0,29.79,South,180,0.0,0.0,82,0.00,,,0.00,WeatherDisplay:10.37,2013-10-22 01:39:00,
2013-10-21 21:44:00,55.2,49.8,29.80,SSW,202,0.0,0.0,82,0.00,,,0.00,WeatherDisplay:10.37,2013-10-22 01:44:00,
2013-10-21 21:49:00,55.2,50.1,29.80,SSW,202,0.0,5.8,83,0.00,,,0.00,WeatherDisplay:10.37,2013-10-22 01:49:00,
2013-10-21 21:54:00,55.2,50.1,29.80,SE,135,0.0,1.1,83,0.00,,,0.00,WeatherDisplay:10.37,2013-10-22 01:54:00,
2013-10-21 21:55:00,55.2,50.1,29.80,SE,135,0.0,0.0,83,0.00,,,0.00,WeatherDisplay:10.37,2013-10-22 01:55:00,
2013-10-21 22:00:00,55.2,50.1,29.80,SSW,202,0.0,0.0,83,0.00,,,0.00,WeatherDisplay:10.37,2013-10-22 02:00:00,
2013-10-21 22:05:00,55.2,50.1,29.80,WSW,248,0.0,0.0,83,0.00,,,0.00,WeatherDisplay:10.37,2013-10-22 02:05:00,
2013-10-21 22:10:00,55.0,50.0,29.79,SW,225,0.0,0.0,83,0.00,,,0.00,WeatherDisplay:10.37,2013-10-22 02:10:00,
2013-10-21 22:15:00,55.0,50.0,29.80,SW,225,0.0,0.0,83,0.00,,,0.00,WeatherDisplay:10.37,2013-10-22 02:15:00,
2013-10-21 22:20:00,55.2,50.1,29.80,SSW,202,0.0,0.0,83,0.00,,,0.00,WeatherDisplay:10.37,2013-10-22 02:20:00,
2013-10-21 22:25:00,55.2,50.1,29.80,SSW,202,0.0,0.0,83,0.00,,,0.00,WeatherDisplay:10.37,2013-10-22 02:25:00,
2013-10-21 22:30:00,55.0,50.0,29.80,SSW,202,0.0,0.0,83,0.00,,,0.00,WeatherDisplay:10.37,2013-10-22 02:30:00,
2013-10-21 22:35:00,55.0,50.0,29.79,SSW,202,0.0,0.0,83,0.00,,,0.00,WeatherDisplay:10.37,2013-10-22 02:35:00,
2013-10-21 22:40:00,55.0,50.0,29.78,SSW,202,0.0,0.0,83,0.00,,,0.00,WeatherDisplay:10.37,2013-10-22 02:40:00,
2013-10-21 22:45:00,55.0,50.0,29.79,SSW,202,0.0,0.0,83,0.00,,,0.00,WeatherDisplay:10.37,2013-10-22 02:45:00,
2013-10-21 22:50:00,55.0,50.0,29.78,SSW,202,0.0,0.0,83,0.00,,,0.00,WeatherDisplay:10.37,2013-10-22 02:50:00,
2013-10-21 22:55:00,55.0,50.0,29.78,SSW,202,0.0,0.0,83,0.00,,,0.00,WeatherDisplay:10.37,2013-10-22 02:55:00,
2013-10-21 23:00:00,54.7,49.6,29.78,SSW,202,0.0,0.0,83,0.00,,,0.00,WeatherDisplay:10.37,2013-10-22 03:00:00,
2013-10-21 23:05:00,54.7,49.6,29.78,SSW,202,0.0,0.0,83,0.00,,,0.00,WeatherDisplay:10.37,2013-10-22 03:05:00,
2013-10-21 23:10:00,54.7,49.6,29.78,SSW,202,0.0,0.0,83,0.00,,,0.00,WeatherDisplay:10.37,2013-10-22 03:10:00,
2013-10-21 23:15:00,54.7,49.6,29.78,SSW,202,0.0,0.0,83,0.00,,,0.00,WeatherDisplay:10.37,2013-10-22 03:15:00,
2013-10-21 23:20:00,54.7,49.6,29.78,SSW,202,0.0,0.0,83,0.00,,,0.00,WeatherDisplay:10.37,2013-10-22 03:20:00,
2013-10-21 23:25:00,54.5,49.4,29.77,SSW,202,0.0,0.0,83,0.00,,,0.00,WeatherDisplay:10.37,2013-10-22 03:25:00,
2013-10-21 23:30:00,54.5,49.4,29.78,SSW,202,0.0,0.0,83,0.00,,,0.00,WeatherDisplay:10.37,2013-10-22 03:30:00,
2013-10-21 23:35:00,54.5,49.8,29.78,SSW,202,0.0,0.0,84,0.00,,,0.00,WeatherDisplay:10.37,2013-10-22 03:35:00,
2013-10-21 23:40:00,54.5,49.8,29.78,SSW,202,0.0,0.0,84,0.00,,,0.00,WeatherDisplay:10.37,2013-10-22 03:40:00,
2013-10-21 23:45:00,54.5,49.8,29.78,SSW,202,0.0,0.0,84,0.00,,,0.00,WeatherDisplay:10.37,2013-10-22 03:45:00,
2013-10-21 23:50:00,54.5,49.8,29.79,SSW,202,0.0,0.0,84,0.00,,,0.00,WeatherDisplay:10.37,2013-10-22 03:50:00,
2013-10-21 23:55:00,54.3,49.6,29.79,SSW,202,0.0,0.0,84,0.00,,,0.00,WeatherDisplay:10.37,2013-10-22 03:55:00,